Probability
0 0 0 0 0 0 0 0 0 0 0 0 0 0 0 0 0 0 0 0 0 0 0 0 0 0 0 0 0 0 0 0 0 0 0 0 0 0 0 0 0 0 0
0 0 0 0 0 0 0 0 0 0 0 0 0 0 0 0 0 0 0 0 0 0 0 0 0 0 0 0 0 0 0 0 0 0 0 0 0 0 0 0 0 0 0
0 0 0 0 0 0 0 0 0 0 0 0 0 0 0 0 0 0 0 0 0 0 0 0 0 0 0 0 0 0 0 0 0 0 0 0 0 0 0 0 0 0 0
0 0 0 0 0 0 0 0 0 0 0 0 0 0 0 0 0 0 0 0 0 0 0 0 0 0 0 0 0 0 0 0 0 0 0 0 0 0 0 0 0 0 0
0 0 0 0 0 0 0 0 0 0 0 0 0 0 0 0 0 0 0 0 0 0 0 0 0 0 0 0 0 0 0 0 0 0 0 0 0 0 0 0 0 0 0
0 0 0 0 0 0 0 0 0 0 0 0 0 0 0 0 0 0 0 0 0 0 0 0 0 0 0 0 0 0 0 0 0 0 0 0 0 0 0 0 0 0 0
0 0 0 1 0 0 0 0 0 0 0 0 0 0 0 0 0 0 0 0 0 0 0 0 0 0 0 0 0 0 0 0 0 0 0 0 0 0 0 0 0 0 0
0 0 1 2 1 0 0 0 0 0 0 0 0 0 0 0 0 0 0 0 0 0 0 0 0 0 0 0 0 0 0 0 0 0 0 0 0 0 0 0 0 0 0
1 0 1 2 1 0 0 0 0 0 0 0 0 0 0 0 0 0 0 0 0 0 0 0 0 0 0 0 0 0 0 0 0 0 0 0 0 0 0 0 0 0 0
3 2 1 1 0 0 0 0 0 0 0 0 0 0 0 0 0 0 0 0 0 0 0 0 0 0 0 0 0 0 0 0 0 0 0 0 0 0 0 0 0 0 0
5 3 1 0 0 0 0 0 0 0 0 0 0 0 0 0 0 0 0 0 0 0 0 0 0 0 0 0 0 0 0 0 0 0 0 0 0 0 0 0 0 0 0
3 3 2 1 0 0 0 0 0 0 0 0 0 0 0 0 0 0 0 0 0 0 0 0 0 0 0 0 0 0 0 0 0 0 0 0 0 0 0 0 0 0 0
1 1 1 1 0 0 0 0 0 0 0 0 0 0 0 0 0 0 0 0 0 0 0 0 0 0 0 0 0 0 0 0 0 0 0 0 0 0 0 0 0 0 0
0 0 0 0 0 0 0 0 0 0 0 0 0 0 0 0 0 0 0 0 0 0 0 0 0 0 0 0 0 0 0 0 0 0 0 0 0 0 0 0 0 0 0
0 0 0 0 0 0 0 0 0 0 0 0 0 0 0 0 0 0 0 0 0 0 0 0 0 0 0 0 0 0 0 0 0 0 0 0 0 0 0 0 0 0 0
0 0 0 0 0 0 0 0 0 0 0 0 0 0 0 0 0 0 0 0 0 0 0 0 0 0 0 0 0 0 0 0 0 0 0 0 0 0 0 0 0 0 0
0 0 0 0 0 0 0 0 0 0 0 0 0 0 0 0 0 0 0 0 0 0 0 0 0 0 0 0 0 0 0 0 0 0 0 0 0 0 0 0 0 0 0
0 0 0 0 0 0 0 0 0 0 0 0 0 0 0 0 0 0 0 0 0 0 0 0 0 0 0 0 0 0 0 0 0 0 0 0 0 0 0 0 0 0 1
0 0 0 0 0 0 0 0 0 0 0 0 0 0 0 0 0 0 0 0 0 0 0 0 0 0 0 0 0 0 0 0 0 0 0 0 0 0 0 0 0 0 1
0 0 0 0 0 0 0 0 0 0 0 0 0 0 0 0 0 0 0 0 0 0 0 0 0 0 0 0 0 0 0 0 0 0 0 0 0 0 0 0 0 0 1
0 0 0 0 0 0 0 0 0 0 0 0 0 0 0 0 0 0 0 0 0 0 0 0 0 0 0 0 0 0 0 0 0 0 0 0 0 0 0 0 0 0 0
0 0 0 0 0 0 0 0 0 0 0 0 0 0 0 0 0 0 0 0 0 0 0 0 0 0 0 0 0 0 0 0 0 0 0 0 0 0 0 0 0 0 0
0 0 0 0 0 0 0 0 0 0 0 0 0 0 0 0 0 0 0 0 0 0 0 0 0 0 0 0 0 0 0 0 0 0 0 0 0 0 0 0 0 0 0
0 0 0 0 0 0 0 0 0 0 0 0 0 0 0 0 0 0 0 0 0 0 0 0 0 0 0 0 0 0 0 0 0 0 0 0 0 0 0 0 0 0 0
0 0 0 0 0 0 0 0 0 0 0 0 0 0 0 0 0 0 0 0 0 0 0 0 0 0 0 0 0 0 0 0 0 0 0 0 0 0 0 0 0 0 0
0 0 0 0 0 0 0 0 0 0 0 0 0 0 0 0 0 0 0 0 0 0 0 0 0 0 0 0 0 0 0 0 0 0 0 0 0 0 0 0 0 0 0
Wind_Speed
5 6 14 14 14 13 12 12 12 12 12 12 11 11 10 11 11 11 11 11 12 12 13 13 14 15 16 17 17 16 16 15 14 14 13 12 11 11 10 9 8 5 9
8 8 15 14 14 13 12 12 12 12 12 11 10 10 10 10 11 11 12 12 12 12 13 13 13 14 15 16 15 15 14 14 13 11 10 8 8 9 9 8 6 4 8
10 8 12 13 13 12 12 12 12 12 12 11 10 9 10 11 11 12 12 12 12 12 12 13 13 13 14 14 13 13 12 11 10 9 7 4 4 8 8 7 6 7 6
10 8 9 13 13 13 13 13 13 12 12 10 9 9 10 11 12 12 12 12 12 12 12 12 12 12 12 11 11 10 9 8 7 7 4 4 3 6 7 6 6 7 6
8 7 9 13 13 13 13 13 13 13 12 10 9 9 10 11 12 12 12 12 11 11 11 11 11 11 10 10 9 8 7 7 7 6 4 4 4 5 7 7 7 7 7
7 7 9 13 13 13 13 14 14 13 12 10 9 9 10 11 12 12 12 11 10 10 10 9 9 9 9 8 8 7 7 8 7 4 3 3 3 5 7 8 8 8 8
7 6 9 13 13 13 13 14 13 13 12 11 10 9 10 11 11 11 11 10 9 8 8 8 8 7 7 7 8 7 7 7 4 3 3 3 2 5 8 8 8 9 9
7 7 8 13 12 12 13 13 13 12 12 11 10 9 10 10 10 10 9 9 8 7 6 6 6 6 6 6 7 7 6 5 4 3 2 2 2 5 8 8 8 8 8
6 6 6 7 9 11 12 11 11 11 10 10 9 9 8 8 8 9 8 8 6 5 4 4 3 4 4 5 6 6 5 5 3 1 1 1 1 5 7 7 6 6 6
5 5 5 6 6 6 7 10 10 10 9 8 8 8 7 7 7 7 6 6 6 5 4 2 2 2 4 5 5 5 5 4 1 0 0 1 1 3 5 5 4 5 5
5 4 4 5 5 6 6 7 8 8 8 7 6 7 6 3 3 3 3 3 4 4 4 3 1 1 4 5 5 5 4 1 1 1 1 3 3 3 4 3 3 3 4
8 6 4 5 5 5 4 4 4 3 4 4 4 4 3 3 2 2 2 3 3 3 3 3 2 1 3 2 3 4 1 1 1 1 2 5 5 4 4 3 2 2 2
8 7 6 5 5 5 3 3 2 2 3 3 4 4 3 2 1 1 0 1 1 1 1 1 1 1 1 1 1 1 0 1 1 2 3 7 7 6 5 5 4 3 2
8 7 6 6 5 5 4 3 3 3 3 3 4 5 3 2 2 2 1 2 1 1 1 1 1 1 1 1 1 1 2 1 2 2 3 7 8 8 7 6 6 5 4
8 8 7 6 6 5 4 3 4 4 4 4 4 4 4 3 3 3 2 2 3 2 2 3 3 3 3 3 2 2 3 3 3 3 3 7 8 9 9 8 8 7 7
7 7 6 7 7 6 5 4 4 4 4 4 4 5 6 4 4 4 3 3 3 3 4 4 4 3 3 3 4 4 4 4 4 4 4 5 8 9 10 11 10 10 9
6 6 6 6 6 6 6 6 4 4 4 4 4 5 6 5 5 4 4 4 4 4 4 3 4 3 3 3 5 5 4 5 5 5 5 4 4 8 11 13 13 12 12
5 5 6 6 6 7 6 5 4 4 5 4 4 4 6 7 6 5 5 5 5 4 4 4 4 4 4 4 5 5 5 4 6 6 5 5 5 5 8 14 14 15 14
4 4 4 4 5 6 5 4 4 4 4 4 4 4 5 7 7 6 6 5 5 5 5 5 5 4 5 6 6 6 5 5 6 6 7 7 7 7 6 10 14 14 14
2 3 3 3 2 3 3 2 2 3 3 3 3 4 5 5 6 6 6 6 5 5 5 6 7 6 5 5 5 5 5 5 5 6 7 7 7 9 8 8 7 9 14
3 4 3 3 2 2 2 2 2 2 2 2 2 3 4 4 5 6 5 5 5 6 7 7 6 6 6 3 2 4 4 5 6 6 6 5 7 8 8 9 7 6 7
4 4 4 4 3 2 2 2 1 1 1 1 1 1 1 1 2 3 5 5 5 5 6 6 6 4 4 4 4 3 4 3 5 7 5 6 8 5 7 9 8 8 7
4 4 4 4 4 3 2 2 2 2 1 1 1 1 2 2 2 2 3 4 4 5 5 6 6 7 6 4 5 5 4 5 3 3 4 5 6 5 6 6 8 9 9
4 4 5 5 5 4 3 3 2 1 0 1 1 2 3 3 3 2 3 3 3 4 5 5 5 6 6 5 4 5 6 3 3 4 2 3 4 6 7 6 7 8 8
4 5 5 6 6 5 5 4 3 2 0 1 1 2 3 3 3 3 3 3 3 3 4 4 4 5 5 5 4 4 5 4 4 5 6 3 3 4 5 5 5 6 7
4 5 5 6 6 5 5 5 4 2 1 1 2 3 3 3 2 4 4 3 3 3 4 4 4 5 4 5 4 4 4 4 4 5 7 5 4 3 3 4 5 5 5
Wind_Direction
175 172 162 158 153 147 142 137 131 125 120 114 109 104 103 104 105 102 98 94 90 84 82 81 82 85 87 87 86 85 84 82 79 76 74 77 80 81 79 72 67 62 77
154 162 159 158 154 149 145 140 134 130 125 119 114 110 110 111 111 108 103 100 95 88 86 86 88 90 90 89 88 87 86 85 83 79 67 60 75 82 82 77 77 73 75
146 156 154 156 151 147 143 140 137 134 128 123 120 115 116 117 116 113 107 102 98 92 90 90 92 93 92 91 90 88 87 87 85 78 62 39 61 86 86 81 75 72 72
146 148 149 153 149 146 144 141 139 135 130 127 124 120 120 120 119 116 112 106 101 96 95 94 95 96 93 91 90 88 88 88 85 71 47 28 18 79 84 83 75 67 66
141 140 149 149 148 146 144 143 140 135 131 129 127 126 126 124 122 118 114 110 105 102 101 101 98 96 91 87 85 85 88 90 83 65 44 27 15 68 76 78 73 67 64
134 138 148 146 146 144 144 144 140 138 135 133 131 129 128 126 122 118 116 114 111 109 108 106 103 97 89 85 84 87 94 95 81 61 39 21 9 67 79 80 75 66 61
136 138 146 146 147 146 146 144 144 143 141 139 138 135 128 124 123 123 122 121 119 117 115 113 109 101 90 83 81 88 99 102 89 67 37 13 12 73 82 82 74 67 63
137 140 146 148 148 147 147 147 149 149 148 146 145 141 135 130 128 131 132 131 129 126 122 118 113 103 91 83 80 85 97 102 92 69 33 360 9 85 85 82 77 70 64
130 135 139 144 147 148 148 150 152 153 152 151 149 141 134 135 140 144 145 146 144 139 131 123 114 97 82 76 77 81 91 99 99 68 11 337 29 94 92 85 79 72 67
124 132 136 135 138 141 147 152 153 154 154 153 148 138 133 137 149 152 151 158 158 155 150 145 127 88 69 66 72 79 92 94 108 111 330 286 251 114 107 95 84 77 75
149 139 137 134 135 138 144 154 154 155 157 152 144 141 131 126 134 147 158 171 171 169 173 182 186 89 69 55 60 77 83 104 158 212 245 253 226 165 132 119 101 91 83
174 170 157 148 144 141 145 139 143 144 148 144 141 140 130 130 134 136 179 197 197 190 198 217 226 68 70 52 34 54 72 148 189 224 241 244 229 202 166 159 153 139 116
180 179 173 163 152 147 137 139 143 141 144 152 157 156 145 138 133 122 127 277 262 225 238 301 337 37 65 61 15 1 317 232 231 240 248 248 237 221 194 186 191 196 188
182 188 181 170 162 160 152 155 160 161 165 172 176 168 158 162 179 189 199 213 214 210 217 236 249 259 266 259 252 273 275 257 246 243 251 252 245 232 216 208 208 214 214
187 191 187 177 175 169 164 170 176 183 186 187 182 181 177 181 195 201 210 213 217 214 216 224 233 245 255 262 254 245 252 249 244 238 249 253 248 238 229 225 221 221 221
194 194 187 185 184 175 177 182 186 190 192 189 194 195 191 192 199 204 215 218 222 218 219 221 228 236 246 253 262 249 244 244 239 235 233 249 247 240 234 231 229 226 225
194 189 186 189 185 184 189 192 192 192 191 200 206 202 200 200 204 207 214 221 225 220 220 226 236 235 245 244 253 251 241 235 233 230 227 226 238 240 234 233 234 231 229
191 187 191 193 182 191 195 195 194 193 195 206 210 208 209 210 208 209 218 226 222 214 213 221 225 232 241 240 246 247 238 232 232 229 222 220 221 227 232 233 234 234 231
185 177 177 181 179 191 196 194 196 194 202 208 208 212 216 216 213 213 223 227 214 215 218 225 223 218 235 238 240 245 239 235 237 231 224 221 220 220 220 230 230 230 229
132 144 151 152 160 168 170 173 185 203 212 211 212 218 220 221 218 218 227 226 211 216 223 222 228 222 231 238 245 251 243 237 233 231 232 226 222 223 221 222 226 229 227
97 107 115 121 109 120 126 152 174 207 210 210 217 224 224 227 224 221 230 226 214 221 227 222 223 230 236 217 235 267 260 237 236 235 229 227 229 226 221 221 221 219 226
112 105 101 99 92 96 118 130 146 151 187 206 234 246 260 264 250 237 236 236 224 227 232 228 218 222 226 185 194 235 283 289 253 237 227 228 235 228 226 225 221 220 218
117 113 107 95 83 73 84 94 75 62 39 28 5 342 333 318 296 276 262 254 245 233 238 234 223 225 239 218 199 209 238 252 280 275 241 237 237 230 234 230 225 225 224
128 108 100 91 78 64 67 86 108 127 190 313 323 317 323 334 331 320 301 281 266 253 248 245 232 229 234 239 214 223 235 238 250 285 265 253 242 239 238 235 231 229 226
122 108 99 89 74 62 63 77 91 94 67 319 335 336 335 335 341 344 331 318 298 278 269 261 251 237 232 237 222 209 228 238 232 252 272 265 270 251 241 234 232 230 226
114 104 98 91 75 62 64 65 78 83 47 13 355 342 335 329 336 349 342 332 315 303 293 281 267 254 245 243 238 213 205 210 212 225 254 254 251 254 244 237 234 234 229